User: anonymous   Login
Location: Unspecified
(0.0000°N, 0.0000°E)
Time: 07:31:34
(UTC+00:00)
Language:

KAIDUN 1 - Orbit

View from above orbital plane
View from above orbital plane
View from above satellite
View from above satellite

Ground track
Ground track

The orbit data is extracted from the following two-line orbital elements,

1 41915U 17002C   20223.76499301  .00000298  00000-0  21150-4 0  9990
2 41915  97.3930 284.9989 0011808  96.7999  47.5123 15.11709494197762
Epoch (UTC): 10 August 2020 18:21:35
Eccentricity: 0.0011808
inclination: 97.3930°
perigee height: 523 km
apogee height: 539 km
right ascension of ascending node: 284.9989°
argument of perigee: 96.7999°
revolutions per day: 15.11709494
mean anomaly at epoch: 47.5123°
orbit number at epoch: 19776

The dashed part of the orbit path shows where the satellite is in the earth's shadow,  

DLR